Location: Chełm
(51.1339°N, 23.4725°E)
Time: 02:20:15
(UTC+01:00)

ISS - Pass Details

Date: 01 February 2019
Orbit: 403 x 411 km, 51.6° (Epoch: 17 February)

Event Time Altitude Azimuth Distance (km) Brightness Sun altitude
Rises 17:20:15 0° 268° (W) 2,333 1.9 -10.2°
Reaches altitude 10° 17:22:20 10° 269° (W) 1,474 0.5 -10.5°
Maximum altitude 17:25:39 80° 357° (N) 421 -3.8 -11.0°
Enters shadow 17:27:56 19° 83° (E) 1,065 -2.4 -11.4°
